Weather History for KS32 - January, 2013

Change the Weather History Date:

Wednesday, January 9, 2013

  Actual Average (KJMS) Record (KJMS)
Temperature  
Mean Temperature 22 °F 10 °F  
Max Temperature 28 °F 20 °F 52 °F (2012)
Min Temperature 15 °F 0 °F -31 °F (1977)
Degree Days  
Heating Degree Days 44 55  
Month to date heating degree days 493  
Since 1 July heating degree days 4153  
Cooling Degree Days 0 0  
Month to date cooling degree days 0  
Year to date cooling degree days 0  
Moisture  
Dew Point 20 °F    
Average Humidity 91    
Maximum Humidity 100    
Minimum Humidity 80    
Precipitation  
Precipitation 0.00 in 0.01 in 0.19 in (1975)
Month to date precipitation 0.14  
Year to date precipitation 0.14  
Sea Level Pressure  
Sea Level Pressure 30.01 in    
Wind  
Wind Speed 20 mph (SW)    
Max Wind Speed 38 mph    
Max Gust Speed 48 mph    
Visibility 10 miles    
Events      
T = Trace of Precipitation, MM = Missing Value Source: NWS Daily Summary

Daily Weather History Graph

Daily Weather History Graph

Search for Another Location

Airport or City:

Trip Planner

Search our weather history database for the weather conditions in past years. The results will help you decide how hot, cold, wet, or windy it might be!

Date:

Astronomy

Jan. 09, 2013 Rise Set
Actual Time 8:18 AM CST 5:01 PM CST
Civil Twilight 7:43 AM CST 5:36 PM CST
Nautical Twilight 7:04 AM CST 6:15 PM CST
Astronomical Twilight 6:27 AM CST 6:52 PM CST
Moon 5:59 AM CST (1/9) 3:04 PM CST (1/9)
Length of Visible Light 9h 53m
Length of Day
8h 43m
Waning Crescent, 6% of the Moon is Illuminated
Jan 9
Waning Crescent
Jan 11
New
Jan 18
First Quarter
Jan 26
Full
Feb 3
Last Quarter

Hourly Weather History & Observations

Time (CST) Temp. Windchill Dew Point Humidity Pressure Visibility Wind Dir Wind Speed Gust Speed Precip Events Conditions
12:15 AM 28.4 °F 13.3 °F 24.8 °F 86% 29.77 in 10.0 mi WNW 27.6 mph 46.0 mph N/A   Overcast
12:35 AM 26.6 °F 9.3 °F 23.0 °F 86% 29.76 in 9.0 mi WNW 34.5 mph 48.3 mph N/A   Overcast
12:55 AM 26.6 °F 11.1 °F 24.8 °F 93% 29.79 in 10.0 mi WNW 26.5 mph 35.7 mph N/A   Overcast
1:35 AM 26.6 °F 10.3 °F 23.0 °F 86% 29.81 in 10.0 mi WNW 29.9 mph 43.7 mph N/A   Overcast
1:55 AM 24.8 °F 7.9 °F 23.0 °F 93% 29.82 in 10.0 mi WNW 29.9 mph 39.1 mph N/A   Mostly Cloudy
2:15 AM 24.8 °F 6.2 °F 21.2 °F 86% 29.84 in 7.0 mi WNW 38.0 mph 46.0 mph N/A   Mostly Cloudy
2:35 AM 24.8 °F 6.8 °F 21.2 °F 86% 29.85 in 10.0 mi WNW 34.5 mph 46.0 mph N/A   Mostly Cloudy
2:55 AM 23.0 °F 6.6 °F 19.4 °F 86% 29.87 in 10.0 mi WNW 25.3 mph 39.1 mph N/A   Partly Cloudy
3:15 AM 23.0 °F 7.2 °F 19.4 °F 86% 29.89 in 10.0 mi WNW 23.0 mph 40.3 mph N/A   Clear
3:35 AM 23.0 °F 7.6 °F 19.4 °F 86% 29.90 in 10.0 mi WNW 21.9 mph 33.4 mph N/A   Clear
3:55 AM 21.2 °F 5.6 °F 17.6 °F 86% 29.92 in 10.0 mi WNW 20.7 mph 29.9 mph N/A   Clear
4:15 AM 21.2 °F 5.6 °F 17.6 °F 86% 29.94 in 10.0 mi WNW 20.7 mph 27.6 mph N/A   Clear
4:55 AM 19.4 °F 2.5 °F 17.6 °F 93% 29.95 in 10.0 mi West 23.0 mph 27.6 mph N/A   Clear
5:15 AM 21.2 °F 3.9 °F 17.6 °F 86% 29.96 in 10.0 mi West 26.5 mph - N/A   Clear
5:35 AM 19.4 °F 3.2 °F 17.6 °F 93% 29.97 in 10.0 mi West 20.7 mph 27.6 mph N/A   Clear
5:55 AM 19.4 °F 2.8 °F 17.6 °F 93% 29.99 in 10.0 mi WNW 21.9 mph 29.9 mph N/A   Clear
6:15 AM 19.4 °F 4.1 °F 17.6 °F 93% 30.00 in 10.0 mi WNW 18.4 mph - N/A   Clear
6:35 AM 19.4 °F 4.1 °F 17.6 °F 93% 30.03 in 10.0 mi WNW 18.4 mph 24.2 mph N/A   Clear
6:55 AM 19.4 °F 4.1 °F 17.6 °F 93% 30.03 in 10.0 mi WNW 18.4 mph 25.3 mph N/A   Clear
7:35 AM 17.6 °F 2.7 °F 15.8 °F 93% 30.05 in 10.0 mi WNW 16.1 mph - N/A   Clear
7:55 AM 17.6 °F 3.7 °F 15.8 °F 93% 30.06 in 10.0 mi NW 13.8 mph - N/A   Clear
8:15 AM 17.6 °F 5.0 °F 15.8 °F 93% 30.07 in 10.0 mi WNW 11.5 mph 18.4 mph N/A   Clear
8:35 AM 17.6 °F 5.0 °F 15.8 °F 93% 30.08 in 10.0 mi WNW 11.5 mph - N/A   Clear
8:55 AM 15.8 °F 2.7 °F 14.0 °F 93% 30.10 in 10.0 mi West 11.5 mph - N/A   Clear
9:15 AM 15.8 °F 2.7 °F 14.0 °F 93% 30.12 in 10.0 mi West 11.5 mph - N/A   Clear
9:35 AM 15.8 °F 6.1 °F 14.0 °F 93% 30.12 in 10.0 mi WNW 6.9 mph - N/A   Clear
9:55 AM 17.6 °F 5.7 °F 15.8 °F 93% 30.12 in 10.0 mi WNW 10.4 mph - N/A   Clear
10:15 AM 17.6 °F 5.7 °F 15.8 °F 93% 30.13 in 10.0 mi WNW 10.4 mph - N/A   Clear
10:55 AM 19.4 °F 10.4 °F 15.8 °F 86% 30.15 in 10.0 mi West 6.9 mph - N/A   Clear
11:15 AM 19.4 °F 9.5 °F 17.6 °F 93% 30.14 in 10.0 mi WSW 8.1 mph - N/A   Clear
11:35 AM 19.4 °F 10.4 °F 17.6 °F 93% 30.12 in 10.0 mi WSW 6.9 mph - N/A   Clear
11:55 AM 19.4 °F 14.3 °F 17.6 °F 93% 30.11 in 10.0 mi WSW 3.5 mph - N/A   Clear
12:15 PM 21.2 °F 12.6 °F 17.6 °F 86% 30.11 in 10.0 mi West 6.9 mph - N/A   Scattered Clouds
12:35 PM 23.0 °F 15.8 °F 17.6 °F 80% 30.11 in 10.0 mi WSW 5.8 mph - N/A   Overcast
12:55 PM 23.0 °F - 17.6 °F 80% 30.11 in 10.0 mi Calm Calm - N/A   Overcast
1:15 PM 23.0 °F - 19.4 °F 86% 30.10 in 10.0 mi Calm Calm - N/A   Overcast
1:35 PM 24.8 °F 15.3 °F 19.4 °F 80% 30.11 in 10.0 mi SSW 9.2 mph - N/A   Overcast
1:55 PM 23.0 °F 13.9 °F 21.2 °F 93% 30.13 in 10.0 mi SSW 8.1 mph - N/A   Overcast
2:15 PM 24.8 °F 15.3 °F 21.2 °F 86% 30.13 in 10.0 mi SSW 9.2 mph - N/A   Overcast
2:35 PM 24.8 °F 16.1 °F 21.2 °F 86% 30.12 in 10.0 mi South 8.1 mph - N/A   Overcast
2:55 PM 24.8 °F 16.9 °F 23.0 °F 93% 30.13 in 10.0 mi SSE 6.9 mph - N/A   Overcast
3:15 PM 24.8 °F 12.9 °F 23.0 °F 93% 30.14 in 10.0 mi South 13.8 mph - N/A   Mostly Cloudy
3:35 PM 24.8 °F 12.9 °F 23.0 °F 93% 30.13 in 10.0 mi SSE 13.8 mph - N/A   Scattered Clouds
3:55 PM 24.8 °F 13.4 °F 21.2 °F 86% 30.12 in 10.0 mi SSE 12.7 mph - N/A   Clear
4:15 PM 24.8 °F 12.9 °F 23.0 °F 93% 30.10 in 10.0 mi SSE 13.8 mph - N/A   Clear
4:35 PM 24.8 °F 12.9 °F 21.2 °F 86% 30.10 in 10.0 mi SSE 13.8 mph - N/A   Clear
4:55 PM 23.0 °F 10.6 °F 21.2 °F 93% 30.10 in 10.0 mi SSE 13.8 mph - N/A   Clear
5:15 PM 23.0 °F 11.1 °F 21.2 °F 93% 30.08 in 10.0 mi SSE 12.7 mph - N/A   Clear
5:35 PM 23.0 °F 10.6 °F 21.2 °F 93% 30.06 in 10.0 mi SSE 13.8 mph - N/A   Clear
5:55 PM 23.0 °F 9.6 °F 23.0 °F 100% 30.05 in 10.0 mi SSE 16.1 mph - N/A   Clear
6:15 PM 24.8 °F 12.4 °F 21.2 °F 86% 30.03 in 10.0 mi SSE 15.0 mph - N/A   Clear
6:35 PM 23.0 °F 10.1 °F 21.2 °F 93% 30.04 in 10.0 mi South 15.0 mph - N/A   Clear
6:55 PM 23.0 °F 9.2 °F 23.0 °F 100% 30.03 in 10.0 mi SSE 17.3 mph - N/A   Clear
7:15 PM 23.0 °F 8.7 °F 23.0 °F 100% 30.01 in 10.0 mi SSE 18.4 mph - N/A   Clear
7:35 PM 24.8 °F 10.7 °F 23.0 °F 93% 30.00 in 10.0 mi SSE 19.6 mph - N/A   Clear
8:15 PM 24.8 °F 10.7 °F 23.0 °F 93% 29.98 in 10.0 mi South 19.6 mph - N/A   Clear
8:35 PM 24.8 °F 11.5 °F 23.0 °F 93% 29.97 in 10.0 mi South 17.3 mph - N/A   Clear
8:55 PM 24.8 °F 10.3 °F 23.0 °F 93% 29.96 in 10.0 mi South 20.7 mph - N/A   Clear
9:15 PM 26.6 °F 12.0 °F 23.0 °F 86% 29.94 in 10.0 mi South 23.0 mph 28.8 mph N/A   Clear
9:35 PM 26.6 °F 13.1 °F 23.0 °F 86% 29.95 in 10.0 mi South 19.6 mph - N/A   Clear
9:55 PM 24.8 °F 10.3 °F 23.0 °F 93% 29.95 in 10.0 mi South 20.7 mph 25.3 mph N/A   Clear
10:15 PM 24.8 °F 10.0 °F 23.0 °F 93% 29.95 in 10.0 mi South 21.9 mph - N/A   Clear
10:35 PM 24.8 °F 11.5 °F 23.0 °F 93% 29.96 in 10.0 mi SSW 17.3 mph - N/A   Clear
10:55 PM 24.8 °F 14.6 °F 23.0 °F 93% 29.95 in 10.0 mi South 10.4 mph - N/A   Clear
11:35 PM 23.0 °F 13.9 °F 23.0 °F 100% 29.94 in 10.0 mi South 8.1 mph - N/A   Clear
11:55 PM 23.0 °F 11.7 °F 23.0 °F 100% 29.93 in 10.0 mi SSE 11.5 mph - N/A   Clear